Regional Weather Roundup
Issued by NWS Columbia, SC

Home | Current Version | Previous Version | Text Only | Print | Product List | Glossary On
Versions: 1 2 3 4 5 6 7 8 9 10 11 12 13 14 15 16 17 18 19 20 21 22 23 24 25 26 27 28 29 30
000
ASUS42 KCAE 221610
RWRCAE
REGIONAL WEATHER ROUNDUP
NATIONAL WEATHER SERVICE COLUMBIA SC
1200 PM EDT WED OCT 22 2014

NOTE: "FAIR" INDICATES FEW OR NO CLOUDS BELOW 12,000 FEET WITH NO
SIGNIFICANT WEATHER AND/OR OBSTRUCTIONS TO VISIBILITY.

NOT ALL STATIONS ARE QUALITY CONTROLLED BY THE NATIONAL
WEATHER SERVICE. USE DATA WITH CAUTION...ESPECIALLY
DEWPOINT OBSERVATIONS.

SCZ001>056-GAZ040-063>065-077-221700-
...UPSTATE SOUTH CAROLINA...

CITY           SKY/WX    TMP DP  RH WIND       PRES   REMARKS
ANDERSON       SUNNY     61  38  42 NW5       30.11R
LIBERTY        FAIR      61  42  48 CALM      30.10S
SPARTANBURG    FAIR      63  36  36 N14G21    30.10S
CLEMSON        SUNNY     64  35  34 VRB6      30.12R
GREENVILLE     SUNNY     61  36  39 N13       30.11R
GREENWOOD      SUNNY     61  40  45 NW6       30.12R
GREER          SUNNY     61  38  42 N12G22    30.09R
ROCK HILL      SUNNY     60  39  45 N16G24    30.09S
LAURENS        FAIR      59  32  36 NE7       30.11S


...CENTRAL SOUTH CAROLINA...

CITY           SKY/WX    TMP DP  RH WIND       PRES   REMARKS
COLUMBIA APT   SUNNY     63  39  41 NW13      30.08S
COLUMBIA OWENS SUNNY     64  39  39 NW7       30.09S
DARLINGTON     SUNNY     63  39  42 N12G21    30.06S
FLORENCE       SUNNY     63  41  44 N13       30.04S
MCENTIRE ANGB  SUNNY     63  40  42 N8        30.08S
ORANGEBURG     SUNNY     63  40  42 N13       30.07S
SUMTER SHAW    SUNNY     61  42  49 N9        30.05S
NEWBERRY       FAIR      61  43  51 N12       30.13R
AIKEN          FAIR      61  43  51 N12       30.11S
BARNWELL       FAIR      64  41  42 N8        30.09R
MANNING        FAIR      63  43  48 NW14      30.06S
CAMDEN         FAIR      59  37  44 N10       30.08S
LANCASTER      FAIR      59  39  47 N10G17    30.08S
WINNSBORO      FAIR      61  37  41 N15       30.08R


...EASTERN AND COASTAL SOUTH CAROLINA...

CITY           SKY/WX    TMP DP  RH WIND       PRES   REMARKS
MYRTLE BEACH   SUNNY     63  39  42 N15       30.02S
N MYRTLE BCH   SUNNY     63  43  48 VRB7      30.01R
CONWAY         FAIR      61  43  51 N9        30.02F HAZE
MARION         FAIR      61  41  48 NW9G17    30.04R
HARTSVILLE     FAIR      63  16  16 N5        30.06S
FLORENCE       SUNNY     63  41  44 N13       30.04S
DARLINGTON     SUNNY     63  39  42 N12G21    30.06S
CHARLESTON APT SUNNY     66  43  42 N10G17    30.05S
MOUNT PLEASANT FAIR      63  45  51 N10       30.04S
WALTERBORO     SUNNY     64  37  36 N7        30.07S
BEAUFORT       SUNNY     65  44  46 N12       30.06S


...EASTERN GEORGIA...

CITY           SKY/WX    TMP DP  RH WIND       PRES   REMARKS
AUGUSTA BUSH F SUNNY     65  38  36 NE8       30.09F
AUGUSTA DANIEL SUNNY     63  38  39 N7        30.10S
THOMSON        SUNNY     64  47  54 NE6       30.15R
WASHINGTON     FAIR      63  48  59 NW3       30.11S
CLAXTON        FAIR      64  43  45 E6        30.08F
SYLVANIA       SUNNY     69  50  50 NE7       30.09S
STATESBORO     SUNNY     64  43  46 NE8       30.08S


...SOUTHERN NORTH CAROLINA...

CITY           SKY/WX    TMP DP  RH WIND       PRES   REMARKS
CHARLOTTE      SUNNY     60  36  40 NW14G21   30.10R
MONROE         SUNNY     60  38  43 N16G23    30.07S
WADESBORO      SUNNY     63  37  38 N9G20     30.05S
ROCKINGHAM     SUNNY     60  39  46 N9G21     30.04R
RUTHERFORDTON  SUNNY     59  36  41 N9G16     30.13R
ASHEVILLE      MOSUNNY   52  35  52 NW17G25   30.16S

$$



USA.gov is the U.S. government's official web portal to all federal, state and local government web resources and services.